Time,TemperatureF,DewpointF,PressureIn,WindDirection,WindDirectionDegrees,WindSpeedMPH,WindSpeedGustMPH,Humidity,HourlyPrecipIn,Conditions,Clouds,dailyrainin,SolarRadiationWatts/m^2,SoftwareType,DateUTC
2013-08-03 01:02:00,63.0,38.0,-100.00,WNW,283,9.0,15.0,40,0.00,,,0.00,0.000000,,2013-08-03 08:02:00,
2013-08-03 01:43:00,63.0,38.0,-100.00,WNW,283,9.0,15.0,40,0.00,,,0.00,0.000000,,2013-08-03 08:43:00,
2013-08-03 01:52:00,63.0,38.0,-100.00,WNW,283,9.0,15.0,40,0.00,,,0.00,0.000000,,2013-08-03 08:52:00,
2013-08-03 03:02:00,63.0,38.0,-100.00,WNW,282,0.0,0.0,39,-99.99,,,-99.99,0.000000,,2013-08-03 10:02:00,
2013-08-03 03:33:00,63.0,38.0,-100.00,WNW,282,0.0,0.0,39,-99.99,,,-99.99,0.000000,,2013-08-03 10:33:00,
2013-08-03 03:43:00,63.0,38.0,-100.00,WNW,282,0.0,0.0,39,-99.99,,,-99.99,0.000000,,2013-08-03 10:43:00,
2013-08-03 03:53:00,63.0,38.0,-100.00,WNW,282,0.0,0.0,39,-99.99,,,-99.99,0.000000,,2013-08-03 10:53:00,
2013-08-03 04:32:00,63.0,41.0,-100.00,West,279,0.0,0.0,44,0.00,,,0.00,0.000000,,2013-08-03 11:32:00,
2013-08-03 12:02:00,78.0,47.0,-100.00,East,85,6.0,11.0,34,-99.99,,,0.00,892.000000,,2013-08-03 19:02:00,
2013-08-03 12:43:00,78.0,47.0,-100.00,East,85,6.0,11.0,34,-99.99,,,0.00,892.000000,,2013-08-03 19:43:00,
2013-08-03 12:52:00,78.0,47.0,-100.00,East,85,6.0,11.0,34,-99.99,,,0.00,892.000000,,2013-08-03 19:52:00,
2013-08-03 13:32:00,80.0,47.0,-100.00,ESE,112,4.0,11.0,32,0.00,,,0.00,955.000000,,2013-08-03 20:32:00,
2013-08-03 13:42:00,80.0,47.0,-100.00,ESE,112,4.0,11.0,32,0.00,,,0.00,955.000000,,2013-08-03 20:42:00,
2013-08-03 13:52:00,80.0,47.0,-100.00,ESE,112,4.0,11.0,32,0.00,,,0.00,955.000000,,2013-08-03 20:52:00,
2013-08-03 14:01:00,80.0,47.0,-100.00,ESE,112,4.0,11.0,32,0.00,,,0.00,955.000000,,2013-08-03 21:01:00,
2013-08-03 14:02:00,83.0,49.0,-100.00,SE,136,5.0,10.0,31,0.00,,,0.00,978.000000,,2013-08-03 21:02:00,
2013-08-03 14:32:00,83.0,49.0,-100.00,SE,136,5.0,10.0,31,0.00,,,0.00,978.000000,,2013-08-03 21:32:00,
2013-08-03 14:42:00,83.0,49.0,-100.00,SE,136,5.0,10.0,31,0.00,,,0.00,978.000000,,2013-08-03 21:42:00,
2013-08-03 14:52:00,83.0,49.0,-100.00,SE,136,5.0,10.0,31,0.00,,,0.00,978.000000,,2013-08-03 21:52:00,
2013-08-03 15:02:00,83.0,47.0,-100.00,West,270,7.0,13.0,28,0.00,,,0.00,939.000000,,2013-08-03 22:02:00,
2013-08-03 15:33:00,83.0,47.0,-100.00,West,270,7.0,13.0,28,0.00,,,0.00,939.000000,,2013-08-03 22:33:00,
2013-08-03 15:43:00,83.0,47.0,-100.00,West,270,7.0,13.0,28,0.00,,,0.00,939.000000,,2013-08-03 22:43:00,
2013-08-03 15:52:00,83.0,47.0,-100.00,West,270,7.0,13.0,28,0.00,,,0.00,939.000000,,2013-08-03 22:52:00,
2013-08-03 16:02:00,84.0,47.0,-100.00,West,263,7.0,14.0,28,0.00,,,0.00,842.000000,,2013-08-03 23:02:00,
2013-08-03 16:32:00,84.0,47.0,-100.00,West,263,7.0,14.0,28,0.00,,,0.00,842.000000,,2013-08-03 23:32:00,
2013-08-03 16:43:00,84.0,47.0,-100.00,West,263,7.0,14.0,28,0.00,,,0.00,842.000000,,2013-08-03 23:43:00,
2013-08-03 16:52:00,84.0,47.0,-100.00,West,263,7.0,14.0,28,0.00,,,0.00,842.000000,,2013-08-03 23:52:00,
2013-08-03 17:02:00,82.0,47.0,-100.00,West,263,7.0,16.0,29,0.00,,,0.00,693.000000,,2013-08-04 00:02:00,
2013-08-03 17:32:00,82.0,47.0,-100.00,West,263,7.0,16.0,29,0.00,,,0.00,693.000000,,2013-08-04 00:32:00,
2013-08-03 17:42:00,82.0,47.0,-100.00,West,263,7.0,16.0,29,0.00,,,0.00,693.000000,,2013-08-04 00:42:00,
2013-08-03 17:53:00,82.0,47.0,-100.00,West,263,7.0,16.0,29,0.00,,,0.00,693.000000,,2013-08-04 00:53:00,
2013-08-03 18:02:00,79.0,48.0,-100.00,West,259,10.0,18.0,34,0.00,,,0.00,510.000000,,2013-08-04 01:02:00,
2013-08-03 18:32:00,79.0,48.0,-100.00,West,259,10.0,18.0,34,0.00,,,0.00,510.000000,,2013-08-04 01:32:00,
2013-08-03 18:42:00,79.0,48.0,-100.00,West,259,10.0,18.0,34,0.00,,,0.00,510.000000,,2013-08-04 01:42:00,
2013-08-03 18:53:00,79.0,48.0,-100.00,West,259,10.0,18.0,34,0.00,,,0.00,510.000000,,2013-08-04 01:53:00,
2013-08-03 19:22:00,74.0,41.0,-100.00,West,264,11.0,19.0,30,0.00,,,0.00,311.000000,,2013-08-04 02:22:00,
2013-08-03 19:32:00,74.0,41.0,-100.00,West,264,11.0,19.0,30,0.00,,,0.00,311.000000,,2013-08-04 02:32:00,
2013-08-03 19:42:00,74.0,41.0,-100.00,West,264,11.0,19.0,30,0.00,,,0.00,311.000000,,2013-08-04 02:42:00,
2013-08-03 19:52:00,74.0,41.0,-100.00,West,264,11.0,19.0,30,0.00,,,0.00,311.000000,,2013-08-04 02:52:00,
2013-08-03 20:01:00,74.0,41.0,-100.00,West,264,11.0,19.0,30,0.00,,,0.00,311.000000,,2013-08-04 03:01:00,
2013-08-03 20:22:00,70.0,46.0,-100.00,West,265,13.0,23.0,42,0.00,,,0.00,108.000000,,2013-08-04 03:22:00,
2013-08-03 20:32:00,70.0,46.0,-100.00,West,265,13.0,23.0,42,0.00,,,0.00,108.000000,,2013-08-04 03:32:00,
2013-08-03 20:42:00,70.0,46.0,-100.00,West,265,13.0,23.0,42,0.00,,,0.00,108.000000,,2013-08-04 03:42:00,
2013-08-03 20:52:00,70.0,46.0,-100.00,West,265,13.0,23.0,42,0.00,,,0.00,108.000000,,2013-08-04 03:52:00,
2013-08-03 21:01:00,70.0,46.0,-100.00,West,265,13.0,23.0,42,0.00,,,0.00,108.000000,,2013-08-04 04:01:00,
2013-08-03 21:22:00,67.0,44.0,-100.00,West,264,11.0,21.0,44,0.00,,,0.00,2.000000,,2013-08-04 04:22:00,
2013-08-03 21:32:00,67.0,44.0,-100.00,West,264,11.0,21.0,44,0.00,,,0.00,2.000000,,2013-08-04 04:32:00,
2013-08-03 21:42:00,67.0,44.0,-100.00,West,264,11.0,21.0,44,0.00,,,0.00,2.000000,,2013-08-04 04:42:00,
2013-08-03 21:52:00,67.0,44.0,-100.00,West,264,11.0,21.0,44,0.00,,,0.00,2.000000,,2013-08-04 04:52:00,
2013-08-03 22:01:00,67.0,44.0,-100.00,West,264,11.0,21.0,44,0.00,,,0.00,2.000000,,2013-08-04 05:01:00,
2013-08-03 22:22:00,65.0,45.0,-100.00,West,267,11.0,21.0,49,0.00,,,0.00,0.000000,,2013-08-04 05:22:00,
2013-08-03 22:32:00,65.0,45.0,-100.00,West,267,11.0,21.0,49,0.00,,,0.00,0.000000,,2013-08-04 05:32:00,
2013-08-03 22:42:00,65.0,45.0,-100.00,West,267,11.0,21.0,49,0.00,,,0.00,0.000000,,2013-08-04 05:42:00,
2013-08-03 22:52:00,65.0,45.0,-100.00,West,267,11.0,21.0,49,0.00,,,0.00,0.000000,,2013-08-04 05:52:00,
2013-08-03 23:01:00,65.0,45.0,-100.00,West,267,11.0,21.0,49,0.00,,,0.00,0.000000,,2013-08-04 06:01:00,
2013-08-03 23:02:00,64.0,45.0,-100.00,West,273,11.0,20.0,50,0.00,,,0.00,0.000000,,2013-08-04 06:02:00,
2013-08-03 23:22:00,64.0,45.0,-100.00,West,273,11.0,20.0,50,0.00,,,0.00,0.000000,,2013-08-04 06:22:00,
2013-08-03 23:32:00,64.0,45.0,-100.00,West,273,11.0,20.0,50,0.00,,,0.00,0.000000,,2013-08-04 06:32:00,
2013-08-03 23:43:00,64.0,45.0,-100.00,West,273,11.0,20.0,50,0.00,,,0.00,0.000000,,2013-08-04 06:43:00,
2013-08-03 23:52:00,64.0,45.0,-100.00,West,273,11.0,20.0,50,0.00,,,0.00,0.000000,,2013-08-04 06:52:00,